Location: Riversdale
(41.0833°S, 176.0667°E)
Time: 07:30:21
(UTC+00:00)

Daily predictions for brighter satellites

Satellite Brightness Start Highest point End
(mag) Time Altitude Azimuth Time Altitude Azimuth Time Altitude Azimuth
ADEOS II 4.5 12:19:25 16° SE 12:19:25 16° SE 12:21:39 10° SSE
CZ-2D R/B 4.1 12:27:49 23° SSE 12:27:49 23° SSE 12:30:20 10° S
Cosmos 2219 Rocket 4.2 12:29:38 23° SE 12:29:38 23° SE 12:31:42 10° SSE
SL-16 R/B 4.0 12:29:38 28° SSW 12:29:38 28° SSW 12:32:57 10° S
CENTAUR R/B 4.2 12:26:51 10° SSW 12:28:38 21° SSW 12:28:38 21° SSW
Resurs 1-4 Rocket 4.0 12:40:14 27° SSE 12:40:14 27° SSE 12:42:53 10° S
Cosmos 2322 Rocket 4.0 12:51:10 27° SSW 12:51:10 27° SSW 12:54:20 10° S
Cosmos 2360 Rocket 4.0 13:18:24 25° SSW 13:18:24 25° SSW 13:21:43 10° S
COSMOS 2428 4.2 13:19:44 33° SSE 13:19:44 33° SSE 13:22:46 10° SSE
BREEZE-M DEB (TANK) 4.5 13:06:02 10° WSW 13:18:28 43° S 13:19:04 42° SSE
Cosmos 2333 Rocket 4.0 13:31:42 25° SSW 13:31:42 25° SSW 13:35:10 10° S
Cosmos 2237 Rocket 3.3 13:54:07 40° SE 13:54:07 40° SE 13:57:56 10° SSE
ALOS 4.2 13:57:13 27° S 13:57:13 27° S 13:59:27 10° S
ADEOS II 3.8 14:00:17 26° SSW 14:00:17 26° SSW 14:02:35 10° SSW
SL-16 R/B 4.1 14:03:50 20° E 14:03:50 20° E 14:07:44 10° SE
CZ-2D R/B 4.2 14:09:06 17° SW 14:09:06 17° SW 14:10:27 10° SSW
Cosmos 1943 Rocket 3.3 14:02:56 10° S 14:08:15 39° ESE 14:08:49 38° ESE
Cosmos 2219 Rocket 4.0 14:11:20 22° SW 14:11:20 22° SW 14:14:53 10° S
Cosmos 2278 Rocket 3.2 14:05:00 10° SSW 14:08:42 41° S 14:08:42 41° S
Resurs 1-4 Rocket 4.4 14:21:17 14° SW 14:21:17 14° SW 14:22:12 10° SW
USA 238 DEB 4.0 14:14:20 10° SW 14:19:17 52° SW 14:19:17 52° SW
USA 238 4.0 14:14:30 10° SW 14:19:33 53° SW 14:19:33 53° SW
ATLAS CENTAUR R/B 4.4 14:21:47 10° SSW 14:21:49 10° SSW 14:21:49 10° SSW
Lacrosse 4 Rocket 3.9 14:31:25 16° SSW 14:31:25 16° SSW 14:32:47 10° S
Meteor 1-24 Rocket 4.1 14:34:09 62° E 14:34:09 62° E 14:39:52 10° SSE
CZ-2C R/B 4.3 14:37:31 10° SE 14:41:46 25° E 14:43:17 21° ENE
Meteor 2-11 Rocket 4.4 14:45:40 74° SW 14:45:40 74° SW 14:51:33 10° S
Cosmos 2366 rocket 4.2 14:47:56 57° NE 14:48:58 66° E 14:55:19 10° SSE
Envisat 3.2 14:53:48 65° S 14:53:48 65° S 14:58:12 10° SSW
Cosmos 1315 Rocket 4.4 14:55:01 31° S 14:55:01 31° S 14:57:11 10° S
Sich 1 Rocket 4.3 14:48:36 10° S 14:52:22 53° SSE 14:52:22 53° SSE
SL-8 Rocket 3.9 14:53:22 72° NNE 14:54:02 83° E 15:00:23 10° S
NOSS 3-4 (C) 4.5 14:53:27 46° W 14:55:31 55° SW 15:03:28 10° SSE
SL-16 R/B 4.1 14:52:27 10° SE 14:57:54 29° E 15:01:59 15° NNE
RESURS DK-1 3.5 15:04:16 41° ESE 15:04:16 41° ESE 15:07:26 10° SE
NOAA 11 4.0 15:05:30 83° NNW 15:05:42 86° WNW 15:11:15 10° SSW
H-2A R/B 4.0 15:03:43 10° ENE 15:07:47 26° ESE 15:11:52 10° S
DELTA 2 R/B (1) 3.4 15:15:14 77° NNW 15:15:21 77° N 15:20:56 10° E
PAYLOAD A 4.0 15:17:02 70° W 15:17:02 70° W 15:22:16 10° SSW
CZ-2C R/B 2.8 15:20:50 50° WSW 15:20:50 50° WSW 15:25:00 10° SSW
Cosmos 1892 3.5 15:21:54 47° E 15:21:54 47° E 15:25:16 10° SSE
Cosmos 2341 Rocket 4.1 15:20:55 53° WNW 15:21:42 56° W 15:28:01 10° S
Cosmos 1452 Rocket 3.3 15:16:33 10° SSW 15:21:52 76° WNW 15:22:15 72° NNW
Cosmos 2218 Rocket 4.0 15:22:58 54° NW 15:24:23 70° W 15:30:52 10° S
Cosmos 1821 Rocket 4.2 15:22:12 31° NNE 15:25:21 70° E 15:31:39 10° SSE
Cosmos 1378 Rocket 4.4 15:28:10 37° SW 15:28:10 37° SW 15:31:30 10° S
Cosmos 2151 Rocket 4.5 15:25:47 10° SSW 15:28:59 38° SW 15:28:59 38° SW
Cosmos 44 Rocket 3.2 15:30:16 62° NNE 15:30:47 68° ENE 15:35:24 10° SE
Meteor 1-4 Rocket 4.1 15:37:22 25° SSW 15:37:22 25° SSW 15:39:04 10° S
Cosmos 2237 Rocket 3.6 15:35:56 23° WSW 15:36:45 23° SW 15:41:17 10° S
IRS-1D 4.3 15:39:39 33° WSW 15:39:39 33° WSW 15:43:13 10° SSW
Cosmos 1975 Rocket 4.1 15:37:56 22° NNE 15:40:29 44° E 15:44:47 10° SSE
CZ-3 R/B 4.2 15:22:41 26° WNW 15:44:13 53° N 15:55:03 10° ENE
SL-4 R/B 3.2 15:44:15 26° SW 15:44:41 27° SSW 15:47:47 10° SE
Cosmos 1025 Rocket 2.9 15:44:39 56° N 15:45:33 90° SSW 15:49:56 10° S
RUBIN 8/PSLV 4.4 15:46:09 59° NNW 15:46:44 69° WNW 15:51:04 10° SSW
SL-16 R/B 2.4 15:45:43 43° WNW 15:47:14 56° WSW 15:52:55 10° SSE
ARIANE 5 R/B 3.7 15:42:45 10° NE 15:47:37 44° ESE 15:52:36 10° S
Cosmos 2084 4.1 15:49:32 41° WSW 15:50:14 44° SW 15:54:45 10° SSE
Cosmos 1727 Rocket 3.9 15:44:46 10° S 15:51:03 84° W 15:57:15 10° N
Cosmos 1943 Rocket 3.3 15:46:58 10° SW 15:50:13 25° WSW 15:50:13 25° WSW
UNK 4.2 15:47:55 10° SSE 15:52:36 60° E 15:55:36 21° N
Okean 1 Rocket 3.3 15:48:14 10° SSW 15:52:37 49° W 15:52:50 49° WNW
Cosmos 1242 Rocket 2.2 15:54:07 69° ENE 15:54:10 69° E 15:57:15 10° SSE
ATLAS 2AS CENTAUR R/B 3.5 15:50:23 17° N 15:55:13 45° ENE 16:01:42 10° SE
ATLAS CENTAUR R/B 3.6 15:52:00 32° NNW 15:55:19 75° NE 16:06:25 10° SE
Cosmos 2297 3.6 15:57:52 10° SSW 16:03:38 81° WNW 16:09:19 10° NNE
CBERS-1 4.2 16:05:06 25° NNW 16:07:53 49° W 16:12:55 10° SSW
USA 290 3.0 16:05:21 10° S 16:08:32 52° ESE 16:11:39 10° NNE
Cosmos 2369 Rocket 2.2 16:06:47 10° SSW 16:12:30 86° ESE 16:18:11 10° NNE
BREEZE-M DEB (TANK) 3.6 16:05:00 10° WSW 16:14:04 62° NW 16:17:13 10° NE
Cosmos 1484 Rocket 3.0 16:13:14 36° NW 16:14:12 45° W 16:17:55 10° SSW
ARGOS 4.0 16:10:32 10° NNE 16:15:48 53° ESE 16:21:07 10° S
Cosmos 1939 Rocket 2.7 16:14:09 10° NNE 16:18:06 87° WNW 16:22:03 10° SSW
Cosmos 1943 3.2 16:15:59 17° NNW 16:20:23 84° ENE 16:26:06 10° SSE
H-2A R/B 2.3 16:18:55 13° N 16:21:58 69° W 16:25:29 10° SSW
CZ-2C R/B 3.1 16:17:16 10° S 16:22:09 40° WSW 16:24:46 24° WNW
Cosmos 1825 3.0 16:24:54 28° W 16:25:20 28° WSW 16:28:29 10° SSW
Cosmos 1269 Rocket 4.1 16:22:07 13° NNW 16:26:51 83° ENE 16:32:12 10° SSE
SWAS 4.4 16:27:44 10° SSW 16:32:03 86° ESE 16:36:18 10° NNE
FengYun 1-2 T 4.4 16:26:25 10° NNE 16:32:06 82° ESE 16:37:50 10° SSW
IRS-1C 4.2 16:32:17 10° N 16:37:34 60° WNW 16:42:55 10° SSW
Cosmos 1302 Rocket 4.4 16:33:20 10° SW 16:38:13 40° WNW 16:43:03 10° N
Cosmos 1869 4.5 16:36:08 10° S 16:40:01 46° E 16:43:51 10° NNE
Meteor 2-1 Rocket 4.3 16:34:44 10° S 16:40:30 90° WNW 16:46:19 10° N
RESURS DK-1 4.2 16:39:56 14° WSW 16:41:31 16° SW 16:44:10 10° SSW
SL-16 R/B 3.0 16:35:36 10° S 16:41:36 46° WSW 16:47:04 12° NW
Cosmos 614 Rocket 4.4 16:38:46 17° NW 16:42:26 44° WSW 16:47:29 10° S
NOSS 2-3 (C) 4.5 16:37:32 10° SW 16:45:02 65° WNW 16:50:27 10° NNE
Cosmos 2123 Rocket 4.0 16:38:44 10° SSW 16:45:04 70° W 16:51:16 10° N
BREEZE-M DEB (TANK) 3.3 16:40:26 15° NW 16:46:40 82° NNE 16:49:38 10° ESE
H-2A R/B 2.5 16:42:29 10° NNW 16:46:59 35° W 16:51:32 10° SSW
Cosmos 1867 3.5 16:42:55 10° SW 16:48:16 64° WNW 16:53:35 10° NNE
Cosmos 1455 Rocket 4.0 16:47:53 10° SSW 16:51:37 27° W 16:55:17 10° NNW
Lacrosse 5 3.2 16:50:46 10° N 16:55:22 36° NE 17:00:02 10° ESE
Cosmos 1992 Rocket 4.1 16:53:50 10° SSW 16:58:59 55° WNW 17:04:05 10° N
In-Cosmos 22 Rocket 4.3 16:56:21 10° NNW 17:01:31 51° WSW 17:06:48 10° S
DELTA 2 R/B (1) 3.9 16:56:11 10° W 17:01:33 48° NNW 17:06:53 10° NE
Cosmos 220 Rocket 4.2 17:01:47 10° NNW 17:06:09 77° ENE 17:10:34 10° SSE
Meteor 1-11 4.4 17:02:49 10° NNW 17:08:15 52° WSW 17:13:48 10° S
Cosmos 1605 Rocket 4.1 17:01:56 10° NNW 17:08:18 73° W 17:14:48 10° S
Cosmos 1140 Rocket 3.7 17:07:26 10° NNW 17:12:41 79° ENE 17:18:00 10° SSE
Meteor 2-19 Rocket 4.5 17:13:02 10° S 17:19:11 82° W 17:25:16 10° N
